Location: Bower School (historical)
(37.8389°N, 89.5348°W)
Time: 02:25:39
(UTC+00:00)

Cosmos 2360 Rocket - Pass Details

Date: 11 December 2025
Orbit: 834 x 842 km, 71.0° (Epoch: 15 January)

Event Time Altitude Azimuth Distance (km) Brightness Sun altitude
Exits shadow 12:22:50 - 331° (NNW) 3,147 4.7 -8.1°
Reaches altitude 10° 12:24:42 10° 328° (NNW) 2,452 4.1 -7.8°
Maximum altitude 12:30:07 52° 253° (WSW) 1,033 2.4 -6.8°
Drops below altitude 10° 12:35:31 10° 178° (S) 2,435 5.0 -5.8°
Sets 12:37:59 0° 174° (S) 3,364 5.8 -5.4°
